Terminal Aerodrome Forecast
Issued by NWS Jacksonville, FL

Home | Current Version | Previous Version | Text Only | Print | Product List | Glossary On
Versions: 1 2 3 4 5 6 7 8 9 10 11 12 13 14 15 16 17 18 19 20 21 22 23 24 25 26 27 28 29 30 31 32 33
000
FTUS42 KJAX 020536
TAFGNV
TAF
KGNV 020536Z 0206/0306 17010KT P6SM BKN015
     FM021100 18006KT P6SM VCSH SCT008 BKN015
     FM021400 22010G17KT P6SM VCTS OVC030CB
     FM021800 22020G25KT P6SM SCT030 BKN060
     FM030200 22010KT P6SM SCT020 BKN040=

USA.gov is the U.S. government's official web portal to all federal, state and local government web resources and services.